Location: Oshawa
(43.9000°N, 78.8670°W)
Time: 17:10:26
(UTC-04:00)

Amateur Radio Satellites - All Passes

Search period start: 25 October 2014 16:40
Search period end: 26 October 2014 16:40
Location: Oshawa, 43.9000°N, 78.8670°W

Satellite Date Start Highest point End Downlink Frequencies (MHz)
Time Altitude Azimuth
KITSAT 1 25 Oct 16:55:07 16:59:28 15° 351° (N) 17:03:49 435.175 FM
JAS-2 25 Oct 17:08:06 17:13:42 40° 64° (ENE) 17:20:00 435.800 - 435.900 CW/SSB, 435.910 FM
ISS 25 Oct 17:13:30 17:16:18 24° 10° (N) 17:19:05 145.800 FM
AO-40 25 Oct 17:16:26 23:26:04 38° 184° (S) 05:04:00 Beacon 2401.320
Hamsat 25 Oct 17:16:57 17:20:10 22° 66° (ENE) 17:23:22 145.90 MHz
Saudisat 1A 25 Oct 17:17:50 17:21:59 40° 242° (WSW) 17:26:06 436.775 MHz
UOSAT-12 25 Oct 17:39:13 17:41:00 12° 332° (NNW) 17:42:47 437.025 FM, 437.400 FM
AO-7 25 Oct 18:13:24 18:19:45 24° 268° (W) 18:26:08 29.400 - 29.500 MHz
Uosat F 25 Oct 18:14:55 18:17:54 16° 270° (W) 18:20:55 435.120 FM
OPAL 25 Oct 18:16:46 18:21:31 44° 101° (E) 18:26:14 ?
ISS 25 Oct 18:50:04 18:53:25 71° 30° (NNE) 18:56:44 145.800 FM
Hamsat 25 Oct 18:52:03 18:55:55 35° 263° (W) 18:59:46 145.90 MHz
KITSAT 1 25 Oct 18:53:15 18:58:43 19° 22° (NNE) 19:04:10 435.175 FM
JAS-2 25 Oct 18:53:19 18:58:48 37° 266° (W) 19:04:59 435.800 - 435.900 CW/SSB, 435.910 FM
SO-67 25 Oct 19:30:19 19:33:45 85° 77° (ENE) 19:37:12 435.3500 MHz FM
SO-50 25 Oct 19:46:08 19:48:03 12° 29° (NNE) 19:50:00 436.795 FM
OPAL 25 Oct 19:56:12 20:00:09 24° 299° (WNW) 20:04:05 ?
HO-68 25 Oct 19:59:16 20:05:13 29° 58° (ENE) 20:11:10 435.675 MHz FM
STRAND 1 25 Oct 20:02:21 20:07:29 62° 102° (ESE) 20:12:34 ?
ISS 25 Oct 20:27:33 20:29:46 17° 227° (SW) 20:31:58 145.800 FM
UKube-1 25 Oct 20:32:50 20:33:48 11° 58° (ENE) 20:34:46 145.840 MHz, 145.915 MHz
KITSAT 1 25 Oct 20:48:26 20:56:18 51° 48° (NE) 21:04:06 435.175 FM
RS-15 25 Oct 21:06:24 21:14:24 24° 101° (ESE) 21:22:18 29.354 - 29.394 USB, Beacon 29.352 USB
Oscar 11 25 Oct 21:10:48 21:14:08 22° 66° (ENE) 21:17:28 145.825 FM, Beacon 2401.500 USB
FUNcube-1 25 Oct 21:13:17 21:14:45 11° 60° (ENE) 21:16:12 145.950 - 145.970 MHz USB
SO-50 25 Oct 21:25:03 21:29:45 50° 50° (NE) 21:34:30 436.795 FM
STRAND 1 25 Oct 21:42:39 21:46:11 19° 299° (WNW) 21:49:43 ?
HO-68 25 Oct 21:45:23 21:52:27 62° 257° (WSW) 21:59:35 435.675 MHz FM
ZACube-1 25 Oct 22:01:56 22:06:02 34° 69° (ENE) 22:10:06 437.345 MHz
UKube-1 25 Oct 22:04:55 22:09:17 89° 256° (WSW) 22:13:41 145.840 MHz, 145.915 MHz
UOSAT-12 25 Oct 22:43:38 22:47:54 32° 45° (NE) 22:52:05 437.025 FM, 437.400 FM
KITSAT 1 25 Oct 22:44:08 22:51:35 43° 249° (WSW) 22:59:00 435.175 FM
FUNcube-1 25 Oct 22:45:52 22:50:27 87° 256° (WSW) 22:55:00 145.950 - 145.970 MHz USB
Oscar 11 25 Oct 22:46:06 22:50:06 36° 263° (W) 22:54:07 145.825 FM, Beacon 2401.500 USB
SO-50 25 Oct 23:06:11 23:10:03 24° 247° (WSW) 23:13:55 436.795 FM
RS-15 25 Oct 23:14:12 23:25:13 90° 303° (WNW) 23:36:13 29.354 - 29.394 USB, Beacon 29.352 USB
ZACube-1 25 Oct 23:38:38 23:42:27 26° 265° (W) 23:46:15 437.345 MHz
MaSat-1 26 Oct 00:14:12 00:18:18 87° 117° (ESE) 00:22:00 437.345 MHz
UOSAT-12 26 Oct 00:23:45 00:28:06 37° 244° (WSW) 00:32:22 437.025 FM, 437.400 FM
RS-15 26 Oct 01:29:25 01:39:08 35° 331° (NNW) 01:48:58 29.354 - 29.394 USB, Beacon 29.352 USB
Oscar 16 26 Oct 01:31:27 01:33:47 13° 89° (E) 01:36:07 437.025 USB, Beacon 2401.1428
Oscar 10/S400 26 Oct 01:43:47 02:37:31 18° 242° (WSW) 04:33:26 145.825 - 145.975 CW/USB, Beacon 145.810 USB
MaSat-1 26 Oct 01:53:31 01:54:17 11° 312° (NW) 01:55:03 437.345 MHz
JAS-1B 26 Oct 02:10:57 02:17:04 34° 97° (E) 02:24:10 435.800 - 435.900 CW/SSB
Oscar 19 26 Oct 02:22:48 02:27:36 39° 98° (E) 02:32:22 437.125 CW, 437.150 USB
AO-27 26 Oct 02:43:53 02:48:15 26° 94° (E) 02:52:33 436.795 MHz FM
AO-Echo 26 Oct 02:53:59 02:59:03 43° 98° (E) 03:04:04 ?
Oscar 16 26 Oct 03:08:37 03:13:45 79° 286° (WNW) 03:18:52 437.025 USB, Beacon 2401.1428
Sapphire 26 Oct 03:14:16 03:18:12 21° 106° (ESE) 03:22:08 437.095 MHz 1200 baud AX-25 AFSK
Uribyol 2 26 Oct 03:30:22 03:35:36 71° 103° (ESE) 03:40:46 436.500 FM
PCSat 26 Oct 03:35:33 03:40:22 34° 111° (ESE) 03:45:14 145.825 MHz
ITAMSAT 1 26 Oct 03:36:43 03:41:58 77° 103° (ESE) 03:47:11 435.822 SSB
RS-15 26 Oct 03:47:18 03:55:55 25° 6° (N) 04:04:42 29.354 - 29.394 USB, Beacon 29.352 USB
OPAL 26 Oct 03:57:10 03:59:51 15° 56° (NE) 04:02:32 ?
JAS-1B 26 Oct 04:01:28 04:07:47 49° 291° (WNW) 04:15:14 435.800 - 435.900 CW/SSB
Oscar 19 26 Oct 04:02:29 04:06:47 28° 295° (WNW) 04:11:04 437.125 CW, 437.150 USB
Gurwin Techsat 1B 26 Oct 04:03:53 04:09:13 74° 103° (ESE) 04:14:31 435.225 FM
TMSAT-1 26 Oct 04:14:17 04:19:36 68° 102° (ESE) 04:24:52 436.925 FM
AO-7 26 Oct 04:19:00 04:25:13 23° 92° (E) 04:31:25 29.400 - 29.500 MHz
AO-27 26 Oct 04:22:59 04:27:54 42° 292° (WNW) 04:32:47 436.795 MHz FM
AO-Echo 26 Oct 04:33:08 04:37:35 28° 295° (WNW) 04:42:02 ?
Uosat F 26 Oct 04:41:05 04:44:30 18° 92° (E) 04:47:54 435.120 FM
Oscar 16 26 Oct 04:50:33 04:52:15 12° 304° (NW) 04:53:57 437.025 USB, Beacon 2401.1428
Sapphire 26 Oct 04:55:48 05:01:08 61° 305° (NW) 05:06:32 437.095 MHz 1200 baud AX-25 AFSK
Uribyol 2 26 Oct 05:11:12 05:14:29 17° 301° (WNW) 05:17:45 436.500 FM
ITAMSAT 1 26 Oct 05:17:42 05:20:50 16° 301° (WNW) 05:23:56 435.822 SSB
PCSat 26 Oct 05:18:39 05:23:43 39° 310° (NW) 05:28:48 145.825 MHz
OPAL 26 Oct 05:32:54 05:38:03 86° 253° (WSW) 05:43:10 ?
STRAND 1 26 Oct 05:43:26 05:46:16 15° 58° (ENE) 05:49:06 ?
Gurwin Techsat 1B 26 Oct 05:45:15 05:48:35 17° 301° (WNW) 05:51:54 435.225 FM
TMSAT-1 26 Oct 05:55:28 05:58:58 18° 300° (WNW) 06:02:28 436.925 FM
JAS-2 26 Oct 05:59:40 06:06:50 38° 94° (E) 06:13:55 435.800 - 435.900 CW/SSB, 435.910 FM
RS-15 26 Oct 06:01:33 06:12:05 45° 39° (NE) 06:22:57 29.354 - 29.394 USB, Beacon 29.352 USB
AO-7 26 Oct 06:10:31 06:18:52 81° 291° (WNW) 06:27:12 29.400 - 29.500 MHz
Uosat F 26 Oct 06:18:41 06:23:39 58° 289° (WNW) 06:28:35 435.120 FM
Hamsat 26 Oct 06:35:57 06:39:48 34° 97° (E) 06:43:39 145.90 MHz
Sapphire 26 Oct 06:42:55 06:45:44 14° 326° (NW) 06:48:32 437.095 MHz 1200 baud AX-25 AFSK
PCSat 26 Oct 07:08:06 07:08:44 10° 333° (NNW) 07:09:22 145.825 MHz
OPAL 26 Oct 07:16:29 07:17:37 11° 270° (W) 07:18:45 ?
STRAND 1 26 Oct 07:19:38 07:24:46 81° 256° (WSW) 07:29:58 ?
Saudisat 1A 26 Oct 07:25:17 07:29:17 36° 117° (ESE) 07:33:19 436.775 MHz
JAS-2 26 Oct 07:44:29 07:51:57 52° 292° (WNW) 07:59:26 435.800 - 435.900 CW/SSB, 435.910 FM
AO-7 26 Oct 08:04:42 08:10:28 21° 312° (NW) 08:16:14 29.400 - 29.500 MHz
Hamsat 26 Oct 08:12:19 08:15:34 22° 293° (WNW) 08:18:49 145.90 MHz
RS-15 26 Oct 08:14:05 08:25:05 66° 243° (WSW) 08:36:33 29.354 - 29.394 USB, Beacon 29.352 USB
MaSat-1 26 Oct 08:24:31 08:25:45 12° 50° (NE) 08:26:55 437.345 MHz
SO-67 26 Oct 08:24:59 08:28:27 84° 101° (E) 08:31:54 435.3500 MHz FM
Saudisat 1A 26 Oct 09:05:01 09:08:54 30° 315° (NW) 09:12:49 436.775 MHz
HO-68 26 Oct 09:12:15 09:17:55 24° 92° (E) 09:23:32 435.675 MHz FM
JAS-2 26 Oct 09:32:23 09:35:18 13° 312° (NW) 09:38:16 435.800 - 435.900 CW/SSB, 435.910 FM
UKube-1 26 Oct 09:53:16 09:55:35 14° 91° (E) 09:57:55 145.840 MHz, 145.915 MHz
MaSat-1 26 Oct 09:59:19 10:01:22 21° 251° (WSW) 10:03:18 437.345 MHz
RS-15 26 Oct 10:29:58 10:35:13 15° 264° (W) 10:40:34 29.354 - 29.394 USB, Beacon 29.352 USB
Oscar 11 26 Oct 10:32:05 10:36:02 34° 97° (E) 10:39:58 145.825 FM, Beacon 2401.500 USB
FUNcube-1 26 Oct 10:35:04 10:37:38 16° 91° (E) 10:40:10 145.950 - 145.970 MHz USB
PCSat 26 Oct 10:41:00 10:41:40 10° 27° (NNE) 10:42:21 145.825 MHz
HO-68 26 Oct 10:59:01 11:06:10 68° 291° (WNW) 11:13:16 435.675 MHz FM
KITSAT 1 26 Oct 11:19:50 11:26:09 26° 105° (ESE) 11:32:28 435.175 FM
ZACube-1 26 Oct 11:25:45 11:29:56 56° 100° (E) 11:34:02 437.345 MHz
UKube-1 26 Oct 11:27:50 11:32:09 57° 288° (WNW) 11:36:25 145.840 MHz, 145.915 MHz
ISS 26 Oct 11:36:23 11:36:23 10° 130° (SE) 11:36:24 145.800 FM
Sapphire 26 Oct 11:59:28 12:04:03 27° 45° (NE) 12:08:36 437.095 MHz 1200 baud AX-25 AFSK
Oscar 10/S400 26 Oct 12:02:26 12:17:24 19° 150° (SSE) 12:29:31 145.825 - 145.975 CW/USB, Beacon 145.810 USB
Oscar 11 26 Oct 12:08:39 12:12:03 23° 294° (WNW) 12:15:26 145.825 FM, Beacon 2401.500 USB
FUNcube-1 26 Oct 12:10:13 12:14:19 47° 288° (WNW) 12:18:18 145.950 - 145.970 MHz USB
PCSat 26 Oct 12:21:35 12:26:42 39° 50° (NE) 12:31:45 145.825 MHz
HO-68 26 Oct 12:48:47 12:52:35 15° 311° (NW) 12:56:24 435.675 MHz FM
Oscar 16 26 Oct 12:49:06 12:53:09 24° 63° (ENE) 12:57:12 437.025 USB, Beacon 2401.1428
JAS-1B 26 Oct 13:00:07 13:04:54 28° 63° (ENE) 13:09:37 435.800 - 435.900 CW/SSB
ZACube-1 26 Oct 13:03:30 13:05:52 15° 298° (WNW) 13:08:12 437.345 MHz
ISS 26 Oct 13:09:13 13:12:32 75° 146° (SE) 13:15:52 145.800 FM
Uribyol 2 26 Oct 13:12:31 13:15:57 18° 60° (ENE) 13:19:24 436.500 FM
KITSAT 1 26 Oct 13:12:42 13:20:46 75° 305° (NW) 13:28:54 435.175 FM
ITAMSAT 1 26 Oct 13:18:48 13:22:23 19° 60° (ENE) 13:26:00 435.822 SSB
SO-50 26 Oct 13:21:19 13:25:49 85° 124° (ESE) 13:30:29 436.795 FM
Oscar 19 26 Oct 13:40:56 13:46:02 65° 73° (ENE) 13:51:08 437.125 CW, 437.150 USB
Sapphire 26 Oct 13:42:30 13:47:49 56° 245° (WSW) 13:53:06 437.095 MHz 1200 baud AX-25 AFSK
Gurwin Techsat 1B 26 Oct 13:48:40 13:52:20 19° 61° (ENE) 13:56:00 435.225 FM
TMSAT-1 26 Oct 13:59:01 14:02:28 18° 60° (ENE) 14:05:56 436.925 FM
AO-27 26 Oct 14:03:12 14:08:08 45° 69° (ENE) 14:13:07 436.795 MHz FM
PCSat 26 Oct 14:05:11 14:10:02 34° 249° (WSW) 14:14:51 145.825 MHz
AO-Echo 26 Oct 14:08:14 14:13:04 60° 72° (ENE) 14:18:06 ?
Saudisat 1A 26 Oct 14:13:18 14:13:53 10° 28° (NNE) 14:14:29 436.775 MHz
Oscar 16 26 Oct 14:27:14 14:32:12 47° 261° (W) 14:37:11 437.025 USB, Beacon 2401.1428
UOSAT-12 26 Oct 14:35:38 14:40:05 47° 118° (ESE) 14:44:36 437.025 FM, 437.400 FM
ISS 26 Oct 14:46:33 14:49:28 28° 345° (NNW) 14:52:25 145.800 FM
Uribyol 2 26 Oct 14:49:41 14:54:53 68° 258° (WSW) 15:00:07 436.500 FM
JAS-1B 26 Oct 14:49:54 14:55:28 42° 261° (W) 15:00:50 435.800 - 435.900 CW/SSB
ITAMSAT 1 26 Oct 14:56:14 15:01:23 63° 258° (WSW) 15:06:36 435.822 SSB
SO-50 26 Oct 15:03:54 15:07:01 18° 324° (NW) 15:10:12 436.795 FM
KITSAT 1 26 Oct 15:11:16 15:17:37 25° 329° (NNW) 15:24:00 435.175 FM
AO-7 26 Oct 15:19:22 15:26:44 38° 58° (ENE) 15:34:06 29.400 - 29.500 MHz
Oscar 19 26 Oct 15:22:41 15:25:50 16° 270° (W) 15:29:00 437.125 CW, 437.150 USB
Gurwin Techsat 1B 26 Oct 15:26:32 15:31:47 64° 258° (WSW) 15:37:05 435.225 FM
TMSAT-1 26 Oct 15:36:32 15:41:49 70° 258° (WSW) 15:47:08 436.925 FM
AO-27 26 Oct 15:43:40 15:47:51 24° 266° (W) 15:52:04 436.795 MHz FM
AO-Echo 26 Oct 15:49:09 15:52:17 17° 270° (W) 15:55:31 ?
Saudisat 1A 26 Oct 15:50:19 15:54:35 45° 49° (NE) 15:58:49 436.775 MHz
Uosat F 26 Oct 15:55:24 15:59:43 30° 65° (ENE) 16:04:04 435.120 FM
JAS-2 26 Oct 16:15:29 16:19:35 18° 53° (NE) 16:23:57 435.800 - 435.900 CW/SSB, 435.910 FM
UOSAT-12 26 Oct 16:16:27 16:20:26 27° 318° (NW) 16:24:29 437.025 FM, 437.400 FM
ISS 26 Oct 16:24:14 16:26:54 22° 5° (N) 16:29:34 145.800 FM
